Flag for U.S.A. Weather past 2 weeks in Midland, Texas, U.S.A.

Now
32 °F

Ice fog.


Feels Like: 24 °F
Forecast: 30 / 47 °F
Wind: 10 mph from East

Location: Midland International Airport

Current Time: Mar 2, 2015 at 9:51:56 AM

Latest Report: Mar 2, 2015 at 8:53 AM


Visibility: 2 mi

Pressure: 30.33 "Hg

Humidity: 96%

Dew point: 31 °F

Location of MidlandLocation

Historic Weather in Midland — Graph

°F

Midland temperature yesterday

Maximum temperature yesterday: 38 °F (at 2:53 PM)
Minimum temperature yesterday: 30 °F (at 3:53 AM)
Average temperature yesterday: 33 °F

Past Weeks' High & Low Weather Summary

 TemperatureHumidityPressure
High78 °F (Feb 20, 2:53 PM)97% (Mar 1, 11:53 AM)30.56 "Hg (Mar 1, 11:53 AM)
Low19 °F (Feb 27, 8:53 PM)12% (Feb 20, 3:53 PM)29.63 "Hg (Feb 20, 4:53 PM)
Average40 °F70%30.09 "Hg
* Reported Feb 15 8:53 AM — Mar 2 8:53 AM, Midland, Weather by CustomWeather, © 2015

Note: Actual official high and low records may vary slightly from our data, if they occured in-between our weather recording intervals... More about our weather records

Advertising

Midland weather history for previous 24 hours

 ConditionsComfort  
Time TempWeatherWind HumidityBarometerVisibility
8:53 AM
Mon, Mar 2
32 °FIce fog.10 mph96%30.33 "Hg2 mi
8:03 AM32 °FIce fog.7 mph96%30.31 "Hg2 mi
7:53 AM32 °FIce fog.8 mph96%30.33 "Hg3 mi
6:53 AM32 °FIce fog.12 mph96%30.29 "Hg4 mi
5:53 AM32 °FIce fog.13 mph96%30.29 "Hg2 mi
4:53 AM32 °FIce fog.12 mph96%30.30 "Hg3 mi
3:53 AM32 °FIce fog.14 mph96%30.31 "Hg3 mi
2:53 AM32 °FIce fog.10 mph96%30.32 "Hg3 mi
1:53 AM32 °FIce fog.10 mph96%30.34 "Hg3 mi
12:53 AM32 °FIce fog.12 mph96%30.34 "Hg5 mi
11:53 PM
Sun, Mar 1
32 °FIce fog.13 mph96%30.34 "Hg3 mi
10:53 PM32 °FIce fog.10 mph96%30.34 "Hg3 mi
9:53 PM33 °FFog.13 mph96%30.32 "Hg2 mi
8:53 PM34 °FFog.10 mph97%30.31 "Hg1 mi
7:53 PM34 °FFog.14 mph97%30.27 "Hg1 mi
6:53 PM35 °FFog.13 mph96%30.23 "Hg1 mi
5:53 PM36 °FFog.13 mph97%30.22 "Hg1 mi
4:53 PM37 °FFog.12 mph96%30.20 "Hg6 mi
3:53 PM38 °FLow clouds.10 mph93%30.21 "Hg8 mi
2:53 PM38 °FFog.9 mph93%30.20 "Hg5 mi
1:53 PM37 °FFog.8 mph93%30.22 "Hg2 mi
12:53 PM36 °FFog.8 mph92%30.24 "Hg2 mi
11:53 AM34 °FFog.8 mph97%30.27 "Hg1 mi
10:53 AM33 °FFog.7 mph96%30.27 "Hg1 mi
9:53 AM32 °FFog.8 mph92%30.27 "Hg1 mi
Weather by CustomWeather, © 2015

See weather overviewHow to use our weather pages